Regional Weather Roundup
Issued by NWS

Home | Current Version | Previous Version | Graphics & Text | Print | Product List | Glossary On
Versions: 1 2 3 4 5 6 7 8 9 10 11 12 13 14 15 16 17 18 19 20 21 22 23 24 25 26 27 28 29 30 31 32 33 34 35 36 37 38 39 40 41 42 43 44 45 46 47 48 49 50
000
ASUS43 KIND 131509
RWRIN

WEATHER ROUNDUP FOR INDIANA
NATIONAL WEATHER SERVICE INDIANAPOLIS IN
1000 AM EST WED DEC 13 2017

NOTE: "FAIR" INDICATES FEW OR NO CLOUDS BELOW 12,000 FEET WITH NO
SIGNIFICANT WEATHER AND/OR OBSTRUCTIONS TO VISIBILITY.

* - STATION DOES NOT REPORT WEATHER SUCH AS PRECIPITATION OR FOG.

+ - STATION NOT QUALITY CONTROLLED BY THE NATIONAL WEATHER SERVICE.
    USE DATA WITH CAUTION...ESPECIALLY DEWPOINT AND RELATIVE
    HUMIDITY OBSERVATIONS.

INZ001>003-010>013-019-020-131600-
NORTHWEST INDIANA

CITY           SKY/WX    TMP DP  RH WIND       PRES   REMARKS
GARY /AIRPORT/ CLOUDY    28   9  43 S12G23    29.56F WCI  18
KNOX *+        CLOUDY    27  12  54 S16       29.63F WCI  14
LA PORTE +     CLOUDY    24  12  60 S10       29.60F WCI  13
MICHIGAN CITY+ CLOUDY    27  10  50 S12G20    29.59F WCI  16
MONTICELLO +   CLOUDY    27   7  43 S13G20    29.65F WCI  16
RENSSELAER +   CLOUDY    30   3  31 S16       29.61F WCI  19
VALPARAISO     CLOUDY    27  12  53 S14G24    29.58F WCI  16

$$

LMZ046-743>745-131600-
SOUTHERN LAKE MICHIGAN

STATION/POSITION TIME  TEMP    WIND        PRES    WAVE
                       AIR SEA DIR/SP/G            HT
                 (UTC) (F)     (DEG/KT/KT) (MB)    (FT)
BURNS HARBOR     1440   27     170/ 12/ 21 1002.0F
MICHIGAN CITY    1440   25     150/ 17/ 21   N/A

$$

INZ004-005-014>016-021>024-131600-
NORTH CENTRAL INDIANA

CITY           SKY/WX    TMP DP  RH WIND       PRES   REMARKS
ELKHART        CLOUDY    21  10  63 S8        29.65F WCI  12
GOSHEN         CLOUDY    22  11  62 S14       29.65F WCI   9
LOGANSPORT +   CLOUDY    27  10  50 S17       29.68F WCI  14
PERU/GRISSOM   CLOUDY    26  10  50 S16G23    29.68F WCI  13
ROCHESTER +    CLOUDY    28  14  54 S14       29.66F WCI  17
SOUTH BEND     CLOUDY    22  11  62 S12       29.63F WCI  10
WARSAW +       CLOUDY    23  10  58 S9        29.67F WCI  13

$$

INZ006>009-017-018-025>027-131600-
NORTHEAST INDIANA

CITY           SKY/WX    TMP DP  RH WIND       PRES   REMARKS
AUBURN +       CLOUDY    23  12  63 S5        29.72F WCI  17
FORT WAYNE     CLOUDY    22  13  68 S14       29.72F WCI   9
HUNTINGTON +   CLOUDY    23   8  53 S10       29.71F WCI  12
KENDALLVILLE + CLOUDY    20  12  71 S14       29.68F WCI   7

$$

INZ028-029-035-036-043>045-051>053-131600-
WEST CENTRAL INDIANA

CITY           SKY/WX    TMP DP  RH WIND       PRES   REMARKS
CRAWFORDSVL +  CLOUDY    28  11  48 S14         N/A  WCI  17
GREENCASTLE +  MOSUNNY   30   9  40 S8G17     29.73F WCI  23
LAFAYETTE      CLOUDY    28   9  44 S14G21    29.67F WCI  17
TERRE HAUTE    CLOUDY    30  11  45 S15G21    29.74F WCI  19

$$

INZ030>032-037>040-046>048-054>057-064-065-131600-
CENTRAL INDIANA

CITY           SKY/WX    TMP DP  RH WIND       PRES   REMARKS
COLUMBUS       CLOUDY    25   7  46 S14G21    29.82F WCI  13
FRANKFORT +    CLOUDY    30  10  44 S15       29.72F WCI  19
GREENWOOD *+   CLOUDY    30  11  44 S16       29.78  WCI  19
INDIANAPOLIS   CLOUDY    26   8  46 S15G25    29.76F WCI  14
-EAGLE CREEK   CLOUDY    27   7  42 S10       29.75F WCI  17
KOKOMO +       CLOUDY    25  12  58 S18       29.71F WCI  11
MARION +       CLOUDY    24  10  53 S16       29.74F WCI  11
MT COMFORT *+  CLOUDY    25  14  63 S14       29.76F WCI  13
SHELBYVILLE    CLOUDY    25   9  50 S17       29.79F WCI  12
ZIONSVILLE +   CLOUDY    25   7  47 S14       29.74F WCI  13

$$

INZ033-034-041-042-049-050-058-059-131600-
EAST CENTRAL INDIANA

CITY           SKY/WX    TMP DP  RH WIND       PRES   REMARKS
MUNCIE         CLOUDY    26   8  46 S10G20    29.75F WCI  16
RICHMOND +     CLOUDY    23  12  63 S15       29.80F WCI  10

$$

INZ060-061-067>069-081>083-085>088-131600-
SOUTHWEST INDIANA

CITY           SKY/WX    TMP DP  RH WIND       PRES   REMARKS
EVANSVILLE     MOSUNNY   33  14  45 S14G25    29.86F WCI  23
HUNTINGBURG +  MOSUNNY   30  16  56 S16G22    29.85F WCI  19
WASHINGTON +   CLOUDY    32  10  39 S17       29.80F WCI  21

$$

INZ062-063-066-070>080-084-089>092-131600-
SOUTH CENTRAL AND SOUTHEAST INDIANA

CITY           SKY/WX    TMP DP  RH WIND       PRES   REMARKS
BEDFORD +      CLOUDY    28  10  47 S10       29.82F WCI  19
BLOOMINGTON    MOSUNNY   29   9  43 S13       29.78F WCI  19
MADISON *+     CLOUDY    28  10  47 S13       29.88F WCI  18
NORTH VERNON + CLOUDY    25   9  50 S9G16     29.85F WCI  15
SEYMOUR +      CLOUDY    28  12  50 S10       29.84F WCI  19

$$





USA.gov is the U.S. government's official web portal to all federal, state and local government web resources and services.